CW1238 Weather Reports


Display with metric or nautical units.
time (UTC)temp
F
wind
direction
speed
MPH
gust
MPH
rain 1hr
in
rain 24hr
in
rain mn
in
humidity
%
barometer
mb
20260904195813 91 82 2.0 3.0 0.00 0.06 0.06 71 1050.9
20260904195311 91 236 1.0 6.0 0.00 0.06 0.06 71 1051.1
20260904194806 89 200 4.0 6.0 0.00 0.06 0.06 69 1051.0
20260904194306 89 222 4.0 7.0 0.00 0.06 0.06 70 1051.2
20260904193801 89 212 2.0 3.0 0.00 0.06 0.06 72 1051.0
20260904193256 89 230 2.0 6.0 0.00 0.06 0.06 71 1050.8
20260904192751 90 222 2.0 4.0 0.00 0.06 0.06 70 1050.7
20260904192247 91 218 4.0 6.0 0.00 0.06 0.06 67 1050.6
20260904191744 90 231 1.0 1.0 0.00 0.06 0.06 66 1050.6
20260904191240 90 316 0.0 6.0 0.00 0.06 0.06 67 1050.6
20260904190736 90 94 3.0 4.0 0.00 0.06 0.06 69 1050.4
20260904190232 89 223 2.0 4.0 0.00 0.06 0.06 67 1050.3
20260904185728 89 194 3.0 4.0 0.00 0.06 0.06 68 1050.5
20260904185222 90 225 3.0 6.0 0.00 0.06 0.06 69 1050.2
20260904184721 90 194 4.0 6.0 0.00 0.06 0.06 68 1050.4
20260904184217 89 190 2.0 4.0 0.00 0.06 0.06 69 1050.6
20260904183713 89 192 4.0 6.0 0.00 0.06 0.06 69 1050.7
20260904183212 89 184 4.0 4.0 0.00 0.06 0.06 68 1050.6
20260904182708 89 202 4.0 4.0 0.00 0.06 0.06 70 1050.6
20260904182203 89 212 3.0 4.0 0.00 0.06 0.06 68 1050.6
20260904181659 88 230 3.0 6.0 0.00 0.06 0.06 71 1050.8
20260904181158 89 219 2.0 3.0 0.00 0.06 0.06 68 1050.7
20260904180654 88 205 2.0 3.0 0.00 0.06 0.06 67 1050.6
20260904180149 88 218 1.0 4.0 0.00 0.06 0.06 70 1050.8
20260904175648 89 178 1.0 3.0 0.00 0.06 0.06 68 1050.8
20260904175147 89 222 4.0 4.0 0.00 0.06 0.06 67 1050.6
20260904174641 89 140 1.0 3.0 0.00 0.06 0.06 71 1050.6
20260904174137 88 107 1.0 2.0 0.00 0.06 0.06 69 1050.8
20260904173633 89 230 3.0 3.0 0.00 0.06 0.06 69 1050.8
20260904173123 89 191 0.0 2.0 0.00 0.06 0.06 67 1050.7
20260904172619 88 201 2.0 2.0 0.00 0.06 0.06 71 1050.6
20260904172118 88 224 2.0 3.0 0.00 0.06 0.06 70 1050.9
20260904171613 88 224 1.0 1.0 0.00 0.06 0.06 73 1050.9
20260904171108 87 239 0.0 0.0 0.00 0.06 0.06 72 1050.8
20260904170604 87 234 0.0 0.0 0.00 0.06 0.06 71 1050.9
20260904170054 86 215 1.0 3.0 0.00 0.06 0.06 71 1050.8
20260904165552 86 231 1.0 3.0 0.00 0.06 0.06 71 1050.8
20260904165046 86 235 1.0 2.0 0.00 0.06 0.06 71 1051.0
20260904164536 86 190 2.0 3.0 0.00 0.06 0.06 73 1051.1
20260904164032 88 240 2.0 6.0 0.00 0.06 0.06 71 1051.0
20260904163531 87 219 0.0 2.0 0.00 0.06 0.06 71 1050.6
20260904163027 86 238 2.0 3.0 0.00 0.06 0.06 71 1050.8
20260904162521 88 201 2.0 3.0 0.00 0.06 0.06 71 1050.8
20260904162016 86 236 0.0 1.0 0.00 0.06 0.06 73 1050.9
20260904161516 87 216 2.0 3.0 0.00 0.06 0.06 73 1050.8
20260904161012 86 200 4.0 4.0 0.00 0.06 0.06 73 1050.8
20260904160507 86 225 4.0 6.0 0.00 0.06 0.06 73 1050.9
20260904160003 85 241 1.0 4.0 0.00 0.06 0.06 75 1050.9
20260904155457 85 242 2.0 3.0 0.00 0.06 0.06 76 1050.9
20260904154955 84 208 2.0 4.0 0.00 0.06 0.06 76 1051.0
20260904154450 84 236 4.0 6.0 0.00 0.06 0.06 76 1050.7
20260904153945 84 221 1.0 3.0 0.00 0.06 0.06 77 1050.9
20260904153440 83 224 2.0 3.0 0.00 0.06 0.06 77 1050.8
20260904152936 83 209 2.0 4.0 0.00 0.06 0.06 78 1050.9
20260904152432 83 260 4.0 4.0 0.00 0.06 0.06 79 1050.7
20260904151931 82 244 4.0 7.0 0.00 0.06 0.06 79 1050.8
20260904151426 82 228 2.0 4.0 0.00 0.06 0.06 80 1050.6
20260904150921 82 207 2.0 6.0 0.00 0.06 0.06 81 1050.6
20260904150416 81 163 3.0 7.0 0.00 0.06 0.06 81 1050.8
20260904145913 81 244 4.0 6.0 0.00 0.06 0.06 81 1050.7
20260904145410 81 254 4.0 4.0 0.00 0.06 0.06 81 1050.6
20260904144905 80 239 3.0 3.0 0.00 0.06 0.06 82 1050.8
20260904144401 80 250 3.0 4.0 0.00 0.06 0.06 82 1050.7
20260904143856 80 167 2.0 3.0 0.00 0.06 0.06 82 1050.5
20260904143353 79 228 2.0 6.0 0.00 0.06 0.06 82 1050.7
20260904142849 79 207 2.0 3.0 0.00 0.06 0.06 84 1050.4
20260904142345 79 214 3.0 4.0 0.00 0.06 0.06 83 1050.6
20260904141839 78 222 1.0 3.0 0.00 0.06 0.06 84 1050.7
20260904141335 78 207 1.0 2.0 0.00 0.06 0.06 83 1050.6
20260904140831 78 204 2.0 2.0 0.00 0.06 0.06 85 1050.6
20260904140326 78 216 1.0 1.0 0.00 0.06 0.06 87 1050.5
20260904135824 77 212 0.0 1.0 0.00 0.06 0.06 87 1050.5
20260904135319 77 210 1.0 1.0 0.00 0.06 0.06 87 1050.8
20260904134816 74 228 0.0 0.0 0.00 0.06 0.06 95 1050.7
20260904134315 73 228 0.0 0.0 0.00 0.06 0.06 97 1050.7
20260904133810 72 224 0.0 0.0 0.00 0.06 0.06 97 1050.5
20260904133306 73 241 0.0 0.0 0.00 0.06 0.06 97 1050.5
20260904132805 73 241 0.0 0.0 0.00 0.06 0.06 97 1050.4
20260904132301 73 241 0.0 0.0 0.00 0.06 0.06 97 1050.5
20260904131800 73 220 0.0 0.0 0.00 0.06 0.06 97 1050.4
20260904131256 73 205 1.0 1.0 0.00 0.06 0.06 97 1050.5
20260904130755 73 240 0.0 0.0 0.00 0.06 0.06 95 1050.3
20260904130249 74 230 0.0 0.0 0.00 0.06 0.06 94 1050.2
20260904125745 74 227 0.0 1.0 0.00 0.06 0.06 93 1050.2
20260904125240 74 228 0.0 1.0 0.00 0.06 0.06 93 1050.3
20260904124735 75 221 2.0 2.0 0.00 0.06 0.06 91 1050.3
20260904124231 75 247 2.0 3.0 0.00 0.06 0.06 91 1050.3
20260904123726 75 237 1.0 2.0 0.00 0.06 0.06 91 1050.1
20260904123222 77 256 1.0 3.0 0.35 0.06 0.06 89 1050.2
20260904122721 76 179 4.0 7.0 0.35 0.06 0.06 85 1049.9
20260904122216 77 240 9.0 13.0 0.00 0.00 0.00 80 1050.3
20260904121711 77 280 5.0 9.0 0.00 0.00 0.00 83 1050.4
20260904121207 75 232 2.0 6.0 0.00 0.00 0.00 85 1050.3
20260904120703 74 227 0.0 0.0 0.00 0.00 0.00 91 1050.0
20260904120159 74 238 1.0 2.0 0.00 0.00 0.00 91 1050.0
20260904115654 73 220 0.0 2.0 0.00 0.00 0.00 94 1050.3
20260904115149 73 222 1.0 2.0 0.00 0.00 0.00 94 1050.1
20260904114643 73 256 1.0 2.0 0.00 0.00 0.00 93 1049.9
20260904114144 73 228 0.0 0.0 0.00 0.00 0.00 93 1050.0
20260904113643 73 231 0.0 0.0 0.00 0.00 0.00 94 1049.8
20260904113142 73 218 0.0 0.0 0.00 0.00 0.00 94 1049.6
20260904112638 73 234 0.0 0.0 0.00 0.00 0.00 94 1049.7
20260904112135 73 234 0.0 0.0 0.00 0.00 0.00 94 1049.8
20260904111630 73 234 0.0 0.0 0.00 0.00 0.00 93 1049.8
20260904111125 73 234 0.0 0.0 0.00 0.00 0.00 93 1049.8
20260904110621 73 233 0.0 0.0 0.00 0.00 0.00 93 1049.9
20260904110114 73 223 0.0 0.0 0.00 0.00 0.00 93 1049.7
20260904105614 73 223 0.0 0.0 0.00 0.00 0.00 93 1049.8
20260904105109 73 223 0.0 0.0 0.00 0.00 0.00 92 1049.6
20260904104604 73 224 0.0 0.0 0.00 0.00 0.00 92 1049.7
20260904104100 73 225 0.0 0.0 0.00 0.00 0.00 92 1049.6
20260904103555 73 230 0.0 0.0 0.00 0.00 0.00 92 1049.7
20260904103051 73 228 0.0 0.0 0.00 0.00 0.00 92 1049.7
20260904102547 73 225 0.0 0.0 0.00 0.00 0.00 92 1049.8
20260904102042 73 225 0.0 1.0 0.00 0.00 0.00 92 1049.7
20260904101539 73 229 0.0 0.0 0.00 0.00 0.00 92 1049.7
20260904101034 73 229 0.0 0.0 0.00 0.00 0.00 92 1049.7
20260904100530 73 226 0.0 0.0 0.00 0.00 0.00 92 1049.5
20260904100025 73 212 0.0 1.0 0.00 0.00 0.00 91 1049.6
20260904095520 73 227 0.0 0.0 0.00 0.00 0.00 92 1049.6
20260904095015 73 220 1.0 1.0 0.00 0.00 0.00 92 1049.6
20260904094509 73 230 0.0 0.0 0.00 0.00 0.00 92 1049.6
20260904094005 73 220 0.0 1.0 0.00 0.00 0.00 92 1049.4
20260904093502 73 225 0.0 0.0 0.00 0.00 0.00 92 1049.5
20260904092951 73 215 1.0 1.0 0.00 0.00 0.00 92 1049.5
20260904092447 73 229 0.0 0.0 0.00 0.00 0.00 92 1049.5
20260904091942 73 223 0.0 1.0 0.00 0.00 0.00 91 1049.6
20260904091439 74 220 0.0 0.0 0.00 0.00 0.00 91 1049.3
20260904090938 74 221 0.0 0.0 0.00 0.00 0.00 91 1049.3
20260904090435 74 225 0.0 1.0 0.00 0.00 0.00 90 1049.2
20260904085929 74 226 2.0 2.0 0.00 0.00 0.00 90 1049.0
20260904085425 74 224 0.0 2.0 0.00 0.00 0.00 90 1049.4
20260904084924 74 219 1.0 2.0 0.00 0.00 0.00 90 1049.4
20260904084421 75 225 1.0 1.0 0.00 0.00 0.00 90 1049.4
20260904083916 75 189 2.0 4.0 0.00 0.00 0.00 90 1049.3
20260904083413 75 244 1.0 4.0 0.00 0.00 0.00 90 1049.4
20260904082908 75 222 1.0 1.0 0.00 0.00 0.00 90 1049.3
20260904082408 75 202 1.0 2.0 0.00 0.00 0.00 90 1049.3
20260904081903 75 231 1.0 2.0 0.00 0.00 0.00 90 1048.9
20260904081358 75 239 1.0 2.0 0.00 0.00 0.00 90 1049.2
20260904080854 75 242 1.0 2.0 0.00 0.00 0.00 90 1049.3
20260904080349 75 193 0.0 3.0 0.00 0.00 0.00 90 1049.0
20260904075841 75 219 2.0 3.0 0.00 0.00 0.00 90 1049.2
20260904075336 75 216 2.0 3.0 0.00 0.00 0.00 90 1049.3
20260904074834 75 210 2.0 3.0 0.00 0.00 0.00 89 1049.3
20260904074329 75 229 1.0 2.0 0.00 0.00 0.00 90 1049.4
20260904073825 75 215 1.0 3.0 0.00 0.00 0.00 90 1049.4
20260904073321 75 209 1.0 3.0 0.00 0.00 0.00 90 1049.3
20260904072817 75 214 1.0 2.0 0.00 0.00 0.00 90 1049.3
20260904072316 75 237 2.0 3.0 0.00 0.00 0.00 90 1049.3
20260904071811 75 187 2.0 3.0 0.00 0.00 0.00 90 1049.5
20260904071306 75 225 1.0 1.0 0.00 0.00 0.00 91 1049.5
20260904070801 75 227 1.0 2.0 0.00 0.00 0.00 91 1049.4
20260904070300 75 236 1.0 2.0 0.00 0.00 0.00 92 1049.5
20260904065755 75 223 0.0 1.0 0.00 0.00 0.00 92 1049.6
20260904065252 75 227 0.0 1.0 0.00 0.00 0.00 93 1049.7
20260904064751 75 223 0.0 0.0 0.00 0.00 0.00 93 1049.8
20260904064247 75 204 0.0 3.0 0.00 0.00 0.00 94 1049.7
20260904063743 74 222 1.0 1.0 0.00 0.00 0.00 95 1049.8
20260904063239 74 234 1.0 2.0 0.00 0.00 0.00 96 1049.8
20260904062734 74 237 0.0 1.0 0.00 0.00 0.00 97 1049.7
20260904062230 73 248 0.0 1.0 0.00 0.00 0.00 97 1049.7
20260904061725 73 236 0.0 0.0 0.00 0.00 0.00 97 1049.8
20260904061221 73 236 0.0 0.0 0.00 0.00 0.00 97 1049.7
20260904060718 73 232 0.0 0.0 0.00 0.00 0.00 97 1049.7
20260904060213 73 230 0.0 0.0 0.00 0.00 0.00 97 1049.7
20260904055709 73 228 0.0 0.0 0.00 0.00 0.00 97 1049.7
20260904055209 73 237 0.0 0.0 0.00 0.00 0.00 97 1049.7
20260904054704 73 225 0.0 1.0 0.00 0.00 0.00 97 1049.8
20260904054200 73 229 0.0 0.0 0.00 0.00 0.00 96 1049.8
20260904053655 73 228 0.0 1.0 0.00 0.00 0.00 96 1049.7
20260904053149 73 229 0.0 0.0 0.00 0.00 0.00 96 1049.6
20260904052646 74 226 0.0 0.0 0.00 0.00 0.00 96 1049.6
20260904052141 74 226 0.0 1.0 0.00 0.00 0.00 95 1049.5
20260904051638 74 226 0.0 1.0 0.00 0.00 0.00 95 1049.6
20260904051132 75 230 0.0 1.0 0.00 0.00 0.00 94 1049.3
20260904050628 75 229 1.0 1.0 0.00 0.00 0.00 94 1049.6
20260904050124 75 230 1.0 2.0 0.00 0.00 0.00 95 1049.5
20260904045619 75 233 0.0 0.0 0.00 0.29 0.29 95 1049.5
20260904045114 75 228 0.0 0.0 0.00 0.29 0.29 95 1049.5
20260904044609 75 240 0.0 0.0 0.00 0.29 0.29 95 1049.6
20260904044106 75 226 0.0 0.0 0.00 0.29 0.29 94 1049.6
20260904043602 75 242 0.0 0.0 0.00 0.29 0.29 94 1049.7
20260904043058 75 233 0.0 0.0 0.00 0.29 0.29 94 1049.5
20260904042554 75 224 0.0 0.0 0.00 0.29 0.29 93 1049.5
20260904042053 75 253 0.0 1.0 0.00 0.29 0.29 93 1049.5
20260904041549 75 236 0.0 1.0 0.00 0.29 0.29 93 1049.6
20260904041045 75 223 1.0 1.0 0.00 0.29 0.29 93 1049.6
20260904040545 75 223 0.0 0.0 0.00 0.29 0.29 93 1049.6
20260904040043 75 237 0.0 0.0 0.00 0.29 0.29 93 1049.6
20260904035542 76 238 0.0 0.0 0.00 0.29 0.29 93 1049.6
20260904035036 76 241 0.0 0.0 0.00 0.29 0.29 93 1049.6
20260904034531 76 133 1.0 1.0 0.00 0.29 0.29 93 1049.6
20260904034027 75 192 0.0 0.0 0.00 0.29 0.29 94 1049.5
20260904033523 75 216 0.0 0.0 0.00 0.29 0.29 94 1049.5
20260904033020 75 241 0.0 1.0 0.00 0.29 0.29 94 1049.6
20260904032514 75 199 0.0 1.0 0.00 0.29 0.29 94 1049.6
20260904032014 75 286 1.0 1.0 0.00 0.29 0.29 94 1049.7
20260904031509 75 229 1.0 2.0 0.00 0.29 0.29 94 1049.6
20260904031005 75 261 0.0 0.0 0.00 0.29 0.29 94 1049.5
20260904030500 75 235 0.0 1.0 0.00 0.29 0.29 94 1049.5
20260904025955 75 236 0.0 0.0 0.00 0.29 0.29 94 1049.4
20260904025451 75 278 0.0 0.0 0.00 0.29 0.29 94 1049.5
20260904024951 75 293 1.0 1.0 0.00 0.29 0.29 94 1049.3
20260904024446 75 76 0.0 0.0 0.00 0.29 0.29 95 1049.5
20260904023942 75 76 0.0 0.0 0.00 0.29 0.29 95 1049.5
20260904023438 75 76 0.0 0.0 0.00 0.29 0.29 95 1049.5
20260904022938 75 76 1.0 2.0 0.00 0.29 0.29 94 1049.7
20260904022434 75 76 1.0 1.0 0.00 0.29 0.29 94 1049.3
20260904021930 76 203 0.0 1.0 0.00 0.29 0.29 93 1049.4
20260904021426 76 152 0.0 0.0 0.00 0.29 0.29 93 1049.6
20260904020920 76 233 0.0 0.0 0.00 0.29 0.29 93 1049.6
20260904020416 76 278 0.0 0.0 0.00 0.29 0.29 92 1049.5
20260904015914 77 241 0.0 0.0 0.00 0.29 0.29 91 1049.3
20260904015410 77 200 0.0 0.0 0.00 0.29 0.29 91 1049.3
20260904014908 77 280 0.0 0.0 0.00 0.29 0.29 91 1049.3
20260904014404 77 251 0.0 0.0 0.00 0.29 0.29 92 1049.3
20260904013859 77 236 0.0 0.0 0.00 0.29 0.29 92 1049.0
20260904013355 77 237 0.0 0.0 0.00 0.29 0.29 92 1048.9
20260904012851 77 245 0.0 0.0 0.00 0.29 0.29 92 1048.9
20260904012346 77 240 0.0 0.0 0.00 0.29 0.29 91 1049.0
20260904011845 77 240 0.0 0.0 0.00 0.29 0.29 91 1048.8
20260904011341 78 235 0.0 0.0 0.00 0.29 0.29 90 1048.8
20260904010836 78 253 0.0 0.0 0.00 0.29 0.29 90 1049.0
20260904010332 78 242 0.0 0.0 0.00 0.29 0.29 89 1048.9
20260904005827 78 251 0.0 0.0 0.00 0.29 0.29 88 1048.9
20260904005323 79 249 0.0 0.0 0.00 0.29 0.29 88 1048.8
20260904004817 80 245 0.0 1.0 0.00 0.29 0.29 86 1048.7
20260904004314 80 224 0.0 1.0 0.00 0.29 0.29 85 1048.6
20260904003809 80 226 0.0 0.0 0.00 0.29 0.29 86 1048.7
20260904003305 80 226 0.0 0.0 0.00 0.29 0.29 85 1048.7
20260904002800 80 226 0.0 0.0 0.00 0.29 0.29 85 1048.7
20260904002256 81 207 0.0 2.0 0.00 0.29 0.29 84 1048.5
20260904001755 81 230 0.0 1.0 0.00 0.29 0.29 83 1048.7
20260904001250 81 225 0.0 0.0 0.00 0.29 0.29 83 1048.6
20260904000745 82 223 0.0 1.0 0.00 0.29 0.29 82 1048.4
20260904000241 82 226 0.0 0.0 0.00 0.29 0.29 81 1048.5
20260903235739 82 264 0.0 2.0 0.00 0.29 0.29 80 1048.3
20260903235236 82 223 0.0 0.0 0.00 0.29 0.29 80 1048.3
20260903234735 82 244 1.0 2.0 0.00 0.29 0.29 79 1048.2
20260903234231 83 213 1.0 3.0 0.00 0.29 0.29 78 1048.3
20260903233727 83 227 0.0 3.0 0.00 0.29 0.29 78 1048.3
20260903233223 83 224 2.0 3.0 0.00 0.29 0.29 78 1048.2
20260903232721 83 228 0.0 3.0 0.00 0.29 0.29 77 1048.3
20260903232218 83 228 2.0 2.0 0.00 0.29 0.29 78 1048.5
20260903231716 82 216 1.0 2.0 0.00 0.29 0.29 79 1048.3
20260903231212 82 209 0.0 1.0 0.00 0.29 0.29 79 1048.5
20260903230708 82 219 1.0 2.0 0.00 0.29 0.29 79 1048.2
20260903230208 82 233 1.0 2.0 0.00 0.29 0.29 78 1048.2
20260903225704 83 237 0.0 3.0 0.00 0.29 0.29 78 1048.2
20260903225200 83 224 0.0 1.0 0.00 0.29 0.29 77 1048.3
20260903224655 83 235 1.0 2.0 0.00 0.29 0.29 76 1048.3
20260903224152 83 219 0.0 2.0 0.00 0.29 0.29 76 1048.4
20260903223647 83 225 1.0 1.0 0.00 0.29 0.29 75 1048.5
20260903223146 83 233 0.0 1.0 0.00 0.29 0.29 75 1048.6
20260903222645 83 225 0.0 1.0 0.00 0.29 0.29 75 1048.3
20260903222144 83 175 2.0 3.0 0.00 0.29 0.29 73 1048.4
20260903221640 84 216 3.0 6.0 0.00 0.29 0.29 73 1048.7
20260903221138 84 233 1.0 3.0 0.00 0.29 0.29 72 1048.6
20260903220637 85 241 1.0 4.0 0.00 0.29 0.29 70 1048.2
20260903220132 86 338 2.0 8.0 0.00 0.29 0.29 69 1048.2
20260903215626 86 143 4.0 7.0 0.00 0.29 0.29 69 1047.8
20260903215126 86 167 5.0 7.0 0.00 0.29 0.29 68 1048.0
20260903214624 86 191 3.0 6.0 0.00 0.29 0.29 69 1048.1
20260903214120 86 221 3.0 7.0 0.00 0.29 0.29 70 1048.0
20260903213615 87 166 4.0 6.0 0.00 0.29 0.29 68 1048.1
20260903213111 86 214 2.0 4.0 0.00 0.29 0.29 69 1048.4
20260903212607 86 185 4.0 4.0 0.00 0.29 0.29 69 1048.2
20260903212102 86 305 3.0 6.0 0.00 0.29 0.29 69 1048.1
20260903211556 86 164 2.0 6.0 0.00 0.29 0.29 70 1048.2
20260903211053 86 186 4.0 8.0 0.00 0.29 0.29 70 1048.2
20260903210548 86 260 3.0 9.0 0.00 0.29 0.29 69 1048.2
20260903210044 85 183 6.0 8.0 0.00 0.29 0.29 70 1048.2
20260903205538 85 200 5.0 10.0 0.00 0.29 0.29 74 1048.4
20260903205038 85 159 6.0 8.0 0.00 0.29 0.29 72 1048.3
20260903204534 84 189 1.0 10.0 0.00 0.29 0.29 73 1048.3
20260903204029 84 239 4.0 7.0 0.00 0.29 0.29 74 1048.2
20260903203525 84 214 2.0 10.0 0.00 0.29 0.29 74 1048.3
20260903203024 84 197 2.0 9.0 0.00 0.29 0.29 77 1048.3
20260903202520 83 199 7.0 11.0 0.00 0.29 0.29 74 1048.3
20260903202015 83 233 4.0 7.0 0.00 0.29 0.29 74 1048.3
20260903201510 83 219 8.0 10.0 0.00 0.29 0.29 75 1048.6
20260903201009 83 192 11.0 16.0 0.00 0.29 0.29 75 1048.5
20260903200504 82 229 4.0 8.0 0.00 0.29 0.29 77 1048.5
20260903195958 82 172 3.0 10.0 0.00 0.29 0.29 77 1048.5